Home > Weather > Saint Helier > Past weeks

Flag for Jersey Weather for the Past 2 Weeks in Saint Helier, Jersey

Now
43 °F

Light rain. Partly cloudy.


Feels Like: 34 °F
Forecast: 43 / 47 °F
Wind: 20 mph from Northwest

Location: Jersey Airport

Current Time: Feb 9, 2016 at 7:49:53 AM

Latest Report: Feb 9, 2016 at 7:20 AM


Visibility: 5 mi

Pressure: 29.15 "Hg

Humidity: 93%

Dew point: 41 °F

Location of Saint HelierLocation

Historic Weather in Saint Helier — Graph

°F

Saint Helier Temperature Yesterday

Maximum temperature yesterday: 50 °F (at 12:50 PM)
Minimum temperature yesterday: 41 °F (at 7:20 AM)
Average temperature yesterday: 47 °F

High & Low Weather Summary for the Past Weeks

 TemperatureHumidityPressure
High54 °F (Jan 25, 2:50 PM)100% (Jan 27, 4:50 AM)30.51 "Hg (Jan 27, 4:50 AM)
Low39 °F (Feb 3, 6:20 AM)61% (Feb 3, 7:50 AM)29.15 "Hg (Feb 9, 6:20 AM)
Average49 °F88%30.03 "Hg
* Reported Jan 25 6:20 AM — Feb 9 6:50 AM, Saint Helier, Weather by CustomWeather, © 2016

Note: Actual official high and low records may vary slightly from our data, if they occured in-between our weather recording intervals... More about our weather records

Advertising

Saint Helier Weather History for the Previous 24 Hours

 ConditionsComfort  
Time TempWeatherWind HumidityBarometerVisibility
6:50 AM
Tue, Feb 9
43 °FRain. Partly cloudy.10 mph100%29.15 "Hg4 mi
6:20 AM43 °FRain. Partly cloudy.7 mph100%29.15 "Hg4 mi
5:50 AM43 °FRain. Passing clouds.7 mph100%29.18 "Hg3 mi
5:20 AM43 °FLight rain. Partly cloudy.6 mph100%29.21 "Hg6 mi
4:50 AM45 °FRain. Partly cloudy.6 mph100%29.27 "Hg3 mi
4:20 AM45 °FRain. Passing clouds.7 mph100%29.30 "Hg3 mi
3:50 AM45 °FRain. Passing clouds.16 mph100%29.33 "Hg4 mi
9:20 PM
Mon, Feb 8
46 °FPassing clouds.22 mph82%29.59 "HgN/A
8:50 PM45 °FScattered showers. Passing clouds.31 mph87%29.59 "Hg4 mi
8:20 PM46 °FScattered showers. Passing clouds.25 mph82%29.59 "HgN/A
7:50 PM46 °FScattered showers. Passing clouds.23 mph82%29.59 "HgN/A
7:20 PM48 °FScattered showers. Passing clouds.26 mph71%29.59 "HgN/A
6:50 PM46 °FPassing clouds.30 mph82%29.59 "HgN/A
6:20 PM46 °FPassing clouds.33 mph76%29.59 "HgN/A
5:50 PM46 °FPassing clouds.38 mph76%29.59 "HgN/A
5:20 PM45 °FPassing clouds.31 mph87%29.59 "HgN/A
4:50 PM46 °FPassing clouds.28 mph76%29.56 "HgN/A
4:20 PM46 °FPassing clouds.37 mph76%29.56 "HgN/A
3:50 PM48 °FScattered clouds.32 mph76%29.53 "HgN/A
3:20 PM46 °FPassing clouds.32 mph82%29.53 "HgN/A
2:50 PM48 °FPartly sunny.43 mph71%29.50 "Hg4 mi
2:20 PM46 °FPassing clouds.37 mph76%29.50 "HgN/A
1:50 PM48 °FScattered clouds.47 mph76%29.50 "HgN/A
1:20 PM45 °FSprinkles. Partly sunny.43 mph87%29.50 "Hg4 mi
12:50 PM50 °FScattered clouds.35 mph71%29.47 "HgN/A
12:20 PM48 °FPartly sunny.28 mph76%29.47 "HgN/A
11:50 AM48 °FPartly sunny.40 mph76%29.45 "HgN/A
11:20 AM48 °FPassing clouds.31 mph82%29.45 "HgN/A
10:50 AM46 °FSprinkles. Partly sunny.36 mph76%29.45 "HgN/A
10:20 AM45 °FScattered showers. Scattered clouds.39 mph87%29.42 "HgN/A
9:50 AM46 °FScattered clouds.31 mph82%29.42 "HgN/A
9:20 AM46 °FScattered clouds.39 mph82%29.42 "HgN/A
8:50 AM45 °FScattered clouds.31 mph87%29.39 "HgN/A
8:20 AM46 °FSprinkles. Partly sunny.36 mph82%29.39 "HgN/A
7:50 AM45 °FPassing clouds.38 mph87%29.39 "HgN/A
7:20 AM41 °FScattered showers. Partly cloudy.36 mph87%29.36 "Hg4 mi
Weather by CustomWeather, © 2016

See weather overviewHow to use our weather pages